Back to catalog

THAICOM 3

AliveCommunicationsGEO
NORAD 24768·PAYLOAD·🇹🇭 Thailand

Launched Apr 16, 1997 from Guiana Space Centre

Loading…

TLE

FreshSource: Space-Track

Epoch: Sep 14, 2026, 10:41 UTC

1 24768U 97016A   26257.44529793  .00000031  00000-0  00000-0 0  9999
2 24768  13.1364  24.4851 0086922  53.8379 139.6272  0.98750646106825

Track THAICOM 3 in real time with AllMySat

Download on the App Store